Location: Julian California
(33.0790°N, 116.6010°W)
Time: 23:29:19
(UTC-07:00)

Cosmos 1441 Rocket - Pass Details

Date: 12 July 2018
Orbit: 498 x 541 km, 81.1° (Epoch: 23 September)

Event Time Altitude Azimuth Distance (km) Brightness Sun altitude
Rises 21:03:04 0° 353° (N) 2,588 7.5 -12.6°
Reaches altitude 10° 21:05:11 10° 354° (N) 1,703 6.5 -12.9°
Maximum altitude 21:08:55 82° 83° (E) 508 3.0 -13.5°
Enters shadow 21:11:46 17° 170° (S) 1,343 4.9 -14.0°
